Regional Weather Roundup
Issued by NWS

Home | Current Version | Previous Version | Graphics & Text | Print | Product List | Glossary On
Versions: 1 2 3 4 5 6 7 8 9 10 11 12 13 14 15 16 17 18 19 20 21 22 23 24 25 26 27 28 29 30 31 32 33 34 35 36 37 38 39 40 41 42 43 44 45 46 47 48 49 50
000
ASUS43 KFSD 251502
RWRSD

WEATHER ROUNDUP FOR SOUTH DAKOTA
NATIONAL WEATHER SERVICE SIOUX FALLS SD
1000 AM CDT MON SEP 25 2017

NOTE: "FAIR" INDICATES FEW OR NO CLOUDS BELOW 12,000 FEET WITH NO
SIGNIFICANT WEATHER AND/OR OBSTRUCTIONS TO VISIBILITY.


SDZ001>005-009-010-012>017-251600-
NORTHWEST AND NORTH CENTRAL SOUTH DAKOTA

CITY           SKY/WX    TMP DP  RH WIND       PRES   REMARKS
FAITH            N/A     46  42  86 NE6       30.15R
MOBRIDGE       CLOUDY    51  46  83 NE8       30.12R
$$

SDZ012>016-024>037-041>051-057-063-072>074-251600-
SOUTHWEST AND SOUTH CENTRAL SOUTH DAKOTA

CITY           SKY/WX    TMP DP  RH WIND       PRES   REMARKS
RAPID CTY ARPT CLOUDY    45  41  87 SE7       30.15R
PIERRE         CLOUDY    50  44  80 N9        30.12S
CUSTER         LGT RAIN  38  36  92 CALM      30.13R
ELLSWORTH AFB  CLOUDY    45  45 100 SE6       30.14
PHILIP         CLOUDY    49  44  83 NE7       30.14R
PINE RIDGE     CLOUDY    45  43  93 NE5       30.15S
SPEARFISH      FAIR      43  43 100 E7        30.14R
WINNER         LGT RAIN  49  46  90 N14       30.11F FOG
$$

SDZ004>011-016>023-039-040-251600-
NORTHEAST SOUTH DAKOTA

CITY           SKY/WX    TMP DP  RH WIND       PRES   REMARKS
ABERDEEN       CLOUDY    51  47  86 N12       30.10F
WATERTOWN      CLOUDY    48  47  96 N17       30.05R
BROOKINGS      CLOUDY    50  47  89 NE10      30.06R
SISSETON         N/A     53  48  83 N16       30.07F
$$

SDZ017-020-022-023-036>040-048>070-251600-
SOUTHEAST SOUTH DAKOTA

CITY           SKY/WX    TMP DP  RH WIND       PRES   REMARKS
SIOUX FALLS    CLOUDY    54  52  93 NE14      30.04R
HURON          CLOUDY    50  48  93 N14       30.09R
CHAMBERLAIN    CLOUDY    50  48  92 N9        30.11R
MITCHELL       CLOUDY    51  50  96 N9        30.08S
YANKTON        LGT RAIN  53  52  96 N13       30.05R FOG
$$

ABBREVIATIONS USED IN REMARKS
   TC - TEMPERATURE IN CELSIUS
  WCI - WIND CHILL INDEX
   HX - HEAT INDEX
  VSB - VISIBILITY





USA.gov is the U.S. government's official web portal to all federal, state and local government web resources and services.